Theta_e
318 317 317 317 316 316 313 311 311 312 312 313 314 315 315 315 315 316 315 316 322 327 326 326 326 325 324 323 322 322 322 321 321 320 320 320 320 320 320 320 319 319 320
319 318 316 316 316 315 316 314 312 312 311 312 313 314 314 314 315 316 316 316 320 324 327 327 328 328 327 326 326 325 324 324 323 321 320 321 320 320 320 320 320 320 319
320 319 317 316 317 316 314 312 311 311 310 311 311 313 313 314 314 314 315 315 316 318 323 327 328 329 329 329 328 328 327 326 325 324 323 322 321 321 321 321 320 321 320
324 321 319 317 317 315 313 311 310 309 308 308 309 310 310 311 312 313 314 315 315 315 318 322 325 327 328 330 330 330 330 329 328 327 325 324 323 322 322 322 321 320 321
327 325 320 318 316 314 312 310 309 309 307 307 307 308 308 308 309 312 311 313 313 315 314 318 319 320 324 327 329 329 330 330 330 329 328 327 325 324 323 322 322 321 321
327 326 323 322 319 314 311 309 309 309 310 307 307 307 307 308 307 307 309 309 310 313 315 314 315 314 317 322 325 328 329 330 329 329 328 328 328 328 325 324 324 323 323
328 325 324 323 321 317 316 314 312 311 309 307 307 305 305 305 305 306 306 306 308 309 310 311 312 312 315 320 322 324 326 328 328 327 326 326 326 326 327 329 327 325 324
328 326 325 323 321 319 317 315 312 308 309 309 308 304 305 307 306 306 306 307 306 306 306 308 309 309 310 312 314 319 321 323 323 324 323 322 323 323 323 324 325 326 327
328 327 326 325 322 321 318 316 313 312 311 307 308 310 304 303 302 305 305 304 304 303 303 304 305 306 307 307 310 310 313 314 315 317 318 319 319 320 320 321 322 323 323
328 327 326 325 324 322 320 319 315 314 313 310 306 307 308 308 304 302 303 302 302 302 303 303 303 303 303 302 304 305 307 309 311 313 315 316 316 317 318 318 318 319 320
326 326 325 324 323 322 321 319 315 313 313 312 310 306 305 304 303 302 299 300 300 300 301 301 300 300 300 300 300 301 306 308 309 309 310 311 313 314 315 316 317 317 318
323 324 323 323 322 320 319 318 317 315 313 313 311 309 306 305 302 300 299 299 300 300 298 299 298 299 299 298 299 300 302 306 308 309 309 310 311 311 312 314 315 315 316
321 322 321 320 319 320 318 318 316 315 313 311 310 309 308 307 307 303 301 301 299 300 302 299 297 297 298 296 297 297 299 303 306 307 308 308 308 309 309 310 312 312 312
319 319 319 319 319 318 318 316 314 313 312 310 309 308 307 307 307 306 303 300 298 298 298 297 297 295 295 296 297 297 297 301 303 305 305 305 305 306 306 307 308 309 309
311 313 313 311 311 311 312 311 309 308 307 306 306 304 305 303 301 301 302 303 300 293 292 293 292 294 295 296 296 297 295 297 300 301 301 302 302 302 303 303 304 305 307
306 306 304 303 302 302 303 303 300 299 297 295 295 294 294 294 293 293 293 293 293 294 291 291 292 292 292 293 294 293 293 294 296 298 299 299 299 299 299 300 301 301 303
299 298 297 296 295 294 294 292 291 291 290 290 290 289 289 290 289 289 289 290 290 289 287 288 289 289 289 288 290 292 292 292 293 295 296 296 297 297 297 297 297 298 299
294 293 293 291 289 289 289 289 288 288 287 287 287 287 286 288 287 288 287 287 287 288 287 284 287 286 287 288 288 287 289 290 290 292 293 293 294 294 295 295 295 296 296
289 288 288 287 286 286 286 286 286 286 286 286 285 285 286 286 284 284 285 286 287 287 286 284 283 286 286 287 286 287 287 287 288 290 292 292 292 293 294 295 294 294 294
286 286 285 285 285 285 285 285 285 284 284 285 285 285 285 284 283 283 284 285 285 284 284 284 283 284 284 285 285 284 283 284 284 287 289 290 291 292 292 291 292 292 292
284 284 284 283 284 285 286 285 284 284 284 284 283 283 283 283 286 286 285 284 284 284 283 283 282 283 283 283 282 284 283 284 285 286 285 286 285 285 285 289 289 290 291
283 283 282 282 282 285 290 290 286 284 283 283 283 282 282 282 285 286 286 287 286 284 282 282 282 281 282 283 283 283 283 282 280 283 283 282 284 284 284 284 288 289 290
282 282 281 282 281 284 289 289 286 283 282 282 282 282 283 283 282 283 285 286 286 287 287 284 282 282 282 283 284 283 282 281 281 283 282 281 283 281 283 284 287 288 289
281 280 280 280 280 284 288 287 286 283 283 283 283 283 282 282 283 284 284 284 284 283 284 285 284 284 285 285 285 284 283 282 282 283 281 276 280 279 281 281 286 287 287
278 278 279 278 278 279 287 287 285 281 282 282 283 283 283 283 285 287 284 283 283 284 287 288 288 288 287 287 286 283 280 278 276 277 277 278 277 276 278 278 279 285 285
278 279 279 278 278 275 283 286 285 281 277 281 282 283 284 282 287 287 284 284 282 283 284 284 283 284 285 284 286 284 282 278 276 275 274 276 273 272 272 269 277 278 277
Wind_Speed
4 3 3 2 2 2 2 2 1 1 2 3 2 2 1 1 1 1 2 7 7 7 6 6 6 6 6 6 7 7 7 8 8 8 9 9 8 8 9 9 8 10 9
4 4 3 3 3 3 2 2 2 2 2 2 3 3 3 3 2 3 3 4 8 9 10 10 9 9 9 10 10 10 10 11 11 11 12 13 13 14 14 13 13 14 13
5 5 4 3 4 3 3 2 1 1 2 2 3 4 3 4 4 4 4 4 4 7 11 13 13 13 13 13 13 14 15 16 15 15 16 17 17 17 17 17 17 18 18
7 5 4 4 4 3 3 2 2 2 2 2 3 4 4 4 5 6 5 4 4 4 6 11 14 15 16 17 18 18 18 19 20 19 21 20 20 21 21 22 22 21 21
6 5 4 4 4 3 3 2 2 2 2 2 4 4 4 4 5 4 7 6 5 4 4 7 11 11 15 18 21 22 23 21 20 20 22 22 23 24 25 25 26 25 26
6 5 4 4 4 3 3 2 4 3 3 2 3 5 5 5 4 5 6 4 5 6 5 5 4 4 10 14 18 21 24 25 24 22 22 21 23 25 27 29 29 29 29
6 6 4 4 5 5 6 5 4 5 2 0 3 4 4 5 5 4 3 4 5 5 6 5 3 3 4 13 16 19 21 22 24 24 24 24 24 25 26 22 31 30 30
7 6 6 5 6 4 4 4 3 1 1 3 0 0 4 5 3 1 2 2 4 4 4 5 5 6 5 4 7 15 18 21 22 23 24 25 25 25 26 26 26 24 26
8 8 8 6 6 6 6 5 5 6 3 3 4 2 2 4 3 2 3 3 4 2 3 4 5 5 6 5 7 10 14 15 18 20 21 22 22 24 25 26 26 26 26
9 8 8 8 7 5 6 7 5 5 4 4 1 4 3 2 3 4 2 3 2 4 5 4 5 6 6 5 6 9 13 16 18 19 19 20 22 22 23 24 25 26 26
6 7 6 6 6 5 5 5 4 5 4 3 3 2 2 1 3 4 3 5 3 3 4 4 4 4 5 5 5 6 12 16 17 16 17 18 19 21 22 25 26 27 28
3 4 5 5 4 4 5 4 5 5 5 4 2 3 3 2 2 3 3 3 4 4 3 5 4 5 5 4 5 9 13 14 16 17 18 19 20 21 24 26 27 27 29
3 4 4 4 3 3 4 3 4 4 4 2 3 2 2 2 1 2 2 3 3 3 4 4 3 3 4 4 5 9 10 15 17 20 21 20 24 24 25 27 28 28 29
2 2 3 3 2 2 2 3 2 2 3 2 4 1 1 1 1 0 1 3 8 5 3 7 3 2 3 4 6 12 7 12 17 21 23 24 25 25 26 27 29 29 30
4 5 7 7 5 6 6 6 5 3 5 4 5 4 2 3 4 4 3 2 3 6 8 2 2 3 6 6 7 9 8 12 19 21 23 24 25 27 28 29 30 31 31
6 7 7 8 5 7 7 7 6 5 6 4 4 5 5 3 4 3 3 3 3 4 8 2 4 5 7 8 10 11 11 13 16 20 23 23 27 28 28 30 31 31 32
7 7 7 7 6 7 7 7 6 6 7 6 5 5 5 4 4 4 4 3 3 3 7 6 5 6 9 8 9 9 10 10 10 18 23 26 27 29 30 30 31 32 32
6 7 8 8 7 7 6 7 7 6 6 6 6 6 6 4 4 4 3 4 3 4 7 13 10 8 11 13 11 10 10 8 10 16 24 27 27 28 29 30 30 30 30
6 6 7 7 7 6 7 6 6 6 6 5 5 5 4 5 4 3 3 3 5 6 8 9 11 9 9 9 11 10 11 11 8 17 22 24 23 25 26 26 29 30 29
7 7 7 7 7 6 6 6 6 6 6 5 5 5 5 5 5 5 4 5 5 6 6 7 8 11 10 10 9 12 13 8 10 9 15 12 17 19 25 28 28 28 27
6 6 7 6 6 6 4 5 5 5 5 5 5 5 5 5 9 7 4 5 5 5 7 8 9 9 10 11 12 11 12 13 11 12 8 4 12 9 10 16 19 25 29
6 6 6 6 6 3 9 10 6 5 5 4 3 3 3 4 6 10 10 12 9 7 8 7 9 10 11 11 11 10 12 11 14 5 13 14 9 10 8 7 22 30 31
5 5 5 5 5 4 9 10 9 3 4 3 3 2 2 2 3 3 7 10 10 13 14 11 11 10 13 11 13 11 13 13 13 13 13 15 10 11 8 9 26 29 26
5 4 5 5 5 4 7 6 5 3 2 2 2 3 4 5 5 6 6 7 8 6 8 8 8 11 11 12 11 12 13 14 12 9 4 14 10 9 11 11 24 21 27
3 3 4 4 4 2 3 5 4 2 0 1 2 3 4 4 8 13 8 8 9 8 8 13 17 19 22 22 19 11 9 8 13 12 4 4 6 13 10 7 5 22 27
4 3 4 3 3 3 3 4 2 1 1 2 2 3 8 7 14 14 8 9 11 12 7 6 7 12 14 13 17 8 7 9 9 9 3 9 4 5 8 3 10 8 10
Wind_Direction
173 165 177 178 185 168 170 180 285 329 340 335 340 350 342 309 337 254 272 285 282 278 275 270 269 269 270 275 271 269 273 269 273 272 273 276 270 264 267 234 244 239 234
177 181 184 195 201 199 202 201 220 257 285 313 308 314 310 310 301 279 263 269 273 271 274 275 273 271 271 275 271 272 272 269 261 254 254 263 261 260 258 249 250 244 235
196 187 193 202 213 209 206 189 258 289 299 310 295 309 303 293 288 278 265 261 272 271 266 270 275 277 277 280 270 261 255 255 253 250 244 245 247 247 247 247 241 242 244
188 190 195 216 209 189 184 185 200 251 274 274 292 287 293 301 294 280 274 260 252 250 271 271 270 275 279 280 280 277 267 267 258 248 250 247 245 247 242 238 238 239 241
185 193 187 212 195 196 196 190 218 198 240 273 275 280 279 275 267 268 268 264 267 262 259 261 262 267 274 278 284 287 290 288 290 279 276 263 256 247 247 244 239 236 236
183 190 196 193 180 174 202 209 215 226 245 252 299 293 273 259 257 254 265 296 274 267 255 245 250 259 260 272 281 285 286 290 290 292 292 286 286 257 256 248 242 241 237
196 189 194 192 180 189 205 200 193 221 260 177 326 321 305 268 274 280 266 274 286 288 287 288 292 278 274 271 277 283 287 293 297 300 303 304 302 300 302 265 267 250 243
196 193 188 198 190 202 215 204 176 195 246 173 222 82 330 333 329 317 261 295 311 321 322 315 312 298 287 279 279 293 298 298 300 303 306 307 306 303 303 301 305 300 278
205 202 203 199 193 185 210 200 186 193 214 203 201 187 245 251 322 320 334 321 334 312 314 316 303 295 292 289 291 294 295 297 300 302 303 304 305 305 304 303 304 300 298
204 205 208 200 201 200 211 209 191 189 161 220 202 229 271 179 247 306 333 298 298 296 303 306 305 301 300 298 298 295 296 305 310 312 313 313 311 309 309 306 303 302 300
199 197 203 201 199 196 213 202 185 193 187 191 188 167 189 231 232 245 278 306 304 267 280 285 282 277 291 294 289 293 301 308 311 311 309 309 307 307 307 306 303 301 298
207 204 199 198 182 188 195 204 207 198 196 206 184 192 168 206 205 225 253 270 269 300 265 278 281 292 296 309 317 298 302 309 313 314 312 312 304 306 309 307 302 301 300
207 213 181 182 181 188 205 210 207 204 179 184 191 204 183 226 188 200 243 272 283 292 295 284 284 281 306 315 301 291 298 304 313 313 314 313 312 309 312 308 301 299 299
91 94 133 134 139 149 170 145 110 106 109 106 108 113 96 14 287 190 277 307 308 285 280 264 262 305 335 314 297 309 301 298 306 316 313 315 314 313 311 306 303 301 300
86 73 80 76 69 79 81 85 81 49 84 56 44 50 57 39 24 9 357 330 307 307 303 309 312 355 352 336 326 330 322 313 317 319 319 315 313 310 307 307 303 300 297
87 86 82 82 55 68 67 74 70 50 76 53 43 49 42 23 22 14 7 355 338 302 286 10 335 336 343 334 327 326 319 313 315 312 310 312 312 308 308 304 301 300 298
86 86 84 82 76 74 67 80 77 69 74 68 46 53 48 25 16 14 11 360 353 337 286 306 327 319 317 318 312 312 312 315 314 316 314 312 309 307 306 304 304 302 300
69 93 94 89 79 71 69 76 76 64 71 59 41 39 29 16 21 16 11 357 345 323 311 303 316 320 320 321 311 312 317 309 313 307 309 304 304 305 304 303 303 304 305
88 79 84 82 80 72 73 67 75 71 68 64 50 42 21 19 18 9 352 346 335 330 319 309 309 312 314 318 317 311 312 308 297 294 297 300 307 301 303 309 308 303 299
92 84 77 86 83 79 76 75 76 72 61 50 38 35 27 29 22 5 348 339 330 318 311 309 306 313 318 322 315 318 314 307 306 295 294 289 300 305 303 304 301 295 294
90 91 93 78 76 74 77 85 75 69 61 50 41 35 33 34 21 2 349 337 329 317 320 317 312 311 318 322 323 317 302 308 309 294 312 303 303 299 293 294 293 294 298
84 82 79 89 88 73 75 74 80 75 68 68 63 50 39 21 6 353 343 332 327 322 314 310 309 304 306 309 309 304 301 314 317 294 327 307 301 298 295 288 296 302 307
104 97 93 93 91 74 75 74 74 80 87 72 54 21 348 322 329 291 306 309 310 304 305 300 298 299 300 303 299 305 315 303 303 309 307 303 314 304 303 295 299 307 312
109 93 75 67 76 62 85 95 111 115 91 51 7 331 321 319 315 319 301 296 305 299 284 289 286 295 292 301 307 305 306 302 298 305 309 297 319 312 313 299 298 314 319
93 95 96 90 102 90 98 111 123 105 15 305 298 303 309 279 291 318 318 299 300 298 284 289 302 308 308 308 309 310 308 315 316 315 322 309 327 314 312 292 316 318 323
118 116 112 98 108 70 18 17 34 185 295 285 321 332 321 315 313 318 318 310 308 312 307 303 300 304 296 290 296 290 296 311 311 314 277 331 325 348 316 295 321 323 325